Weather observations for the past three days for
Russian Mission
Metric (Imperial)
Date Time (akdt) Wind (kph) Vis. (km) Weather Sky Cond. Temperature (ºC) Relative Humidity Wind Chill (°C) Heat Index (°C) Pressure Precipitation (cm)
Air Dwpt 6 hour altimeter (cm) sea level (mb) 1 hr 3 hr 6 hr
Max. Min.
21 07:56 W 6 16.09 Overcast OVC100 11.7 11.7 100% 76.05 1014.2
21 06:56 Calm 16.09 Mostly Cloudy BKN100 11.1 11.1 100% 76.05 1014.1
21 05:56 Calm 16.09 Overcast OVC090 11.1 11.1 100% 76.05 1013.9
21 04:56 Calm 16.09 Overcast BKN090 OVC110 11.1 11.1 100% 76.05 1014.0
21 03:56 W 6 16.09 Overcast OVC100 11.7 11.7 13.9 11.7 100% 76.05 1014.2 0.03 0.18
21 02:56 W 7 16.09 Partly Cloudy FEW055 SCT110 11.7 11.7 100% 76.05 1013.9
21 01:56 W 6 16.09 Overcast OVC060 12.2 12.2 100% 76.05 1014.1
21 00:56 Calm 12.87 Light Rain OVC065 12.8 12.2 96% 76.05 1014.0 0.03 0.15
20 23:56 W 13 16.09 Light Rain OVC075 12.8 12.2 96% 76.02 1013.6 0.1
20 22:56 Vrbl 9 16.09 Light Rain BKN055 OVC070 13.3 12.2 93% 76.07 1014.5 0.03
20 21:56 Calm 16.09 Light Rain FEW011 BKN065 OVC085 13.3 12.2 21.7 13.3 93% 76.05 1014.0 0.03 0.1
20 20:56 SW 9 14.48 Light Rain BKN065 OVC075 13.3 11.7 90% 76.02 1013.8 0.08
20 19:56 Vrbl 6 12.87 Partly Cloudy SCT065 19.4 8.3 49% 75.97 1013.1
20 18:56 N 15 16.09 Partly Cloudy FEW065 SCT075 SCT100 20.6 7.8 44% 75.95 1012.8
20 17:56 Calm 16.09 Fair CLR 21.1 5 35% 75.97 1012.9
20 16:56 Vrbl 6 16.09 Fair CLR 20.6 4.4 35% 76 1013.5
20 15:56 Vrbl 7 16.09 Fair CLR 19.4 7.8 19.4 14.4 47% 76.07 1014.3
20 14:56 NE 6 14.48 Fair CLR 18.3 8.3 52% 76.1 1014.9
20 13:56 SE 6 16.09 Fair CLR 18.3 7.8 51% 76.15 1015.3
20 12:56 Calm 16.09 Fair CLR 16.7 7.8 56% 76.15 1015.5
20 11:56 Vrbl 9 16.09 Fair CLR 16.1 7.8 58% 76.17 1015.7
20 10:56 Vrbl 6 16.09 Fair CLR 15 8.3 64% 76.2 1016.1
20 09:56 Vrbl 6 16.09 Fair CLR 13.9 8.9 13.9 10 72% 76.23 1016.4
20 08:56 NE 7 16.09 Fair CLR 12.2 9.4 83% 76.23 1016.4
20 07:56 Calm 16.09 Partly Cloudy SCT090 11.7 10 89% 76.23 1016.5
20 06:56 W 6 16.09 Overcast OVC095 10 9.4 96% 76.23 1016.4
20 05:56 SW 7 16.09 Overcast BKN090 OVC100 10 8.9 93% 9 76.23 1016.3
20 04:56 W 6 16.09 Overcast SCT080 OVC095 10 9.4 96% 76.23 1016.3
20 03:56 Calm 16.09 Overcast OVC120 10.6 9.4 15 10.6 92% 76.2 1016.2
20 02:56 W 6 16.09 Overcast OVC100 11.1 9.4 89% 76.2 1016.1
20 01:56 W 7 16.09 Overcast BKN070 OVC100 11.7 10 89% 76.2 1016.0
20 00:56 Calm 16.09 Overcast OVC100 12.2 9.4 83% 76.2 1016.0
19 23:56 Calm 14.48 Overcast SCT050 OVC065 13.3 9.4 77% 76.17 1015.6
19 22:56 S 6 16.09 Overcast OVC060 14.4 8.3 67% 76.17 1015.6
19 21:56 S 7 16.09 Overcast OVC060 15 8.3 16.1 13.9 64% 76.15 1015.4
19 20:56 SE 7 16.09 Overcast OVC065 15.6 7.8 60% 76.12 1015.0
19 19:56 Calm 16.09 Overcast BKN050 OVC065 15.6 6.7 56% 76.12 1015.0
19 18:56 SE 6 16.09 Overcast OVC050 15 7.2 60% 76.12 1015.0
19 17:56 Calm 16.09 Overcast OVC039 15 7.8 62% 76.12 1015.2
19 16:56 E 6 16.09 Overcast OVC041 14.4 7.8 65% 76.15 1015.3
19 15:56 Vrbl 6 16.09 Overcast FEW030 OVC041 14.4 8.3 14.4 11.7 67% 76.15 1015.2
19 14:56 E 11 16.09 Overcast OVC043 13.9 8.3 69% 76.12 1015.2
19 13:56 Vrbl 6 16.09 Overcast OVC041 14.4 7.2 62% 76.12 1014.9
19 12:56 Vrbl 7 16.09 Overcast BKN043 OVC065 14.4 7.8 65% 76.1 1014.7
19 11:56 SE 11 16.09 Overcast FEW020 BKN041 OVC100 13.3 9.4 77% 76.07 1014.5
19 10:56 Vrbl 6 16.09 Overcast BKN010 BKN027 OVC048 12.8 10.6 87% 76.07 1014.3
19 09:56 Calm 16.09 Overcast FEW008 BKN050 OVC065 11.7 10 11.7 10.6 89% 76.05 1014.0 0.15
19 08:56 Calm 16.09 Overcast SCT009 BKN014 OVC043 11.1 10.6 97% 76.02 1013.8
19 07:56 Vrbl 6 16.09 Overcast FEW006 BKN014 OVC050 11.1 10.6 97% 76.02 1013.6
19 06:56 Calm 16.09 Overcast FEW005 BKN030 OVC050 11.1 10.6 97% 76 1013.4 0.15
19 05:56 Calm 16.09 Overcast SCT007 BKN033 OVC050 10.6 10.6 100% 76 1013.4 0.03
19 04:56 Calm 4.83 Rain Fog/Mist FEW004 BKN015 OVC022 10.6 10.6 100% 76 1013.3 0.13
19 03:56 W 6 16.09 Light Rain SCT029 SCT036 OVC050 10.6 10.6 13.9 10.6 100% 75.97 1013.1
19 02:56 Calm 16.09 Light Rain FEW042 OVC050 10.6 10 96% 75.97 1013.0
19 01:56 Calm 16.09 Overcast FEW050 BKN065 OVC090 11.1 10 93% 75.97 1013.1
19 00:56 NW 6 16.09 Light Rain BKN050 OVC065 11.7 10 89% 75.97 1013.0
18 23:56 SW 11 16.09 Overcast SCT060 BKN075 OVC085 12.2 9.4 83% 75.95 1012.7
18 22:56 Calm 16.09 Light Rain BKN060 OVC080 13.3 7.8 70% 75.92 1012.5
18 21:56 W 6 16.09 Overcast BKN070 BKN090 OVC100 13.9 8.3 16.7 13.9 69% 75.92 1012.2
18 20:56 W 13 16.09 Overcast BKN065 OVC080 14.4 8.9 70% 75.9 1012.1
18 19:56 W 11 16.09 Overcast FEW070 OVC090 13.9 7.8 67% 75.9 1012.0
18 18:56 SW 11 16.09 Overcast BKN065 OVC090 14.4 8.3 67% 75.92 1012.4
18 17:56 SW 11 16.09 Light Rain BKN060 OVC075 13.9 8.3 69% 75.9 1012.1
18 16:56 SW 20 G 31 16.09 Overcast OVC065 15 8.3 64% 75.92 1012.2
18 15:56 SW 20 G 35 16.09 Overcast FEW043 SCT055 OVC075 16.1 7.2 19.4 16.1 56% 75.9 1011.9
18 14:56 SW 15 16.09 Mostly Cloudy BKN037 BKN090 BKN120 18.3 9.4 56% 75.87 1011.6
18 13:56 S 20 G 28 16.09 A Few Clouds FEW035 18.9 10.6 59% 75.84 1011.5
18 12:56 S 22 G 30 16.09 Overcast BKN029 BKN038 OVC065 18.3 11.1 63% 75.84 1011.5
18 11:56 S 19 16.09 A Few Clouds FEW025 18.3 11.7 66% 75.84 1011.5
18 10:56 SW 11 16.09 A Few Clouds FEW017 17.2 12.2 73% 75.87 1011.7
18 09:56 S 9 16.09 Mostly Cloudy FEW015 BKN075 16.1 12.2 16.1 11.7 78% 75.87 1011.8
18 08:56 S 9 16.09 Partly Cloudy SCT011 15.6 12.8 84% 75.87 1011.8
Date Time (akdt) Wind (kph) Vis. (km) Weather Sky Cond. Air Dwpt Max. Min. Relative Humidity Wind Chill (°C) Heat Index (°C) altimeter (cm) sea level (mb) 1 hr 3 hr 6 hr
6 hour
Temperature (ºC) Pressure Precipitation (cm)